[[{"header":{"parameterUnit":"m.s-1","parameterCategory":1,"la1":30.2991,"la2":30.254,"lo1":-89.0895,"lo2":-89.0444,"dy":0.0017,"dx":0.0017,"nx":28,"ny":28,"refTime":"2023-08-19T21:00:00:Z","depth":0,"parameterNumber":2,"parameterNumberName":"U-component_of_WINDS"},"data":[0,0,0,0,0,0,0,0,0,0,0,0,0,0,0,0,0,0,0,0,0,0,0,0,0,0,0,0,0,0,0,0,0,0,0,0,0,0,0,0,0,0,0,0,0,0,0,0,0,0,0,0,0,0,0,0,0,0,-5.5499,-5.55,0,-5.5515,-5.5515,-5.5516,-5.536,-5.5356,-5.5351,-5.5347,-5.5362,-5.5367,-5.5371,0,0,0,0,0,0,0,0,0,0,0,0,0,-5.5333,-5.5337,-5.5499,-5.55,-5.55,-5.5515,-5.5515,-5.5516,-5.5361,-5.5356,-5.535,-5.5345,-5.5361,-5.5366,-5.5371,0,0,0,0,0,0,0,0,0,0,0,0,0,-5.5383,-5.5338,-5.5499,-5.5424,-5.5418,-5.5515,-5.5516,-5.5516,-5.5362,-5.5355,-5.5349,-5.5343,-5.5359,-5.5366,-5.5372,-5.5542,0,0,-5.5392,-5.5395,0,0,0,0,0,0,0,0,-5.538,-5.5389,-5.5435,-5.543,-5.5423,-5.5429,-5.5462,-5.5524,-5.5364,-5.5383,-5.5347,-5.534,-5.539,-5.5393,-5.541,-5.5542,-5.5543,-5.5393,-5.5397,-5.54,-5.5402,0,0,0,0,0,0,0,-5.5377,-5.5388,-5.5505,-5.5436,-5.5428,-5.5389,-5.5389,-5.5473,-5.5422,-5.5381,-5.537,-5.5374,-5.5385,-5.5405,-5.541,-5.5543,-5.5393,-5.5399,-5.5403,-5.5405,-5.5813,-5.582,0,0,0,0,0,0,-5.5384,-5.5386,-5.5505,-5.5506,-5.5385,-5.5398,-5.5398,-5.5434,-5.5421,-5.5413,-5.5379,-5.5366,-5.5396,-5.5402,-5.541,-5.5605,-5.54,-5.5406,-5.541,-5.5806,-5.5815,-5.5822,0,0,0,0,0,0,-5.5381,-5.5396,-5.5504,-5.5443,-5.5454,-5.5407,-5.5449,-5.5437,-5.5456,-5.542,-5.541,-5.5409,-5.5392,-5.54,-5.551,-5.5603,-5.5409,-5.5415,-5.5798,-5.5809,-5.5818,-5.5999,0,0,0,0,0,0,-5.5377,-5.5396,-5.546,-5.5446,-5.5458,-5.5605,-5.5455,-5.5442,-5.5468,-5.5452,-5.5445,-5.5437,-5.5387,-5.5501,-5.5516,-5.5609,-5.542,-5.5789,-5.5803,-5.5815,-5.5984,-5.6014,-5.6039,0,0,0,0,0,-5.5372,-5.551,-5.5464,-5.548,-5.5537,-5.5611,-5.5617,-5.5558,-5.5477,-5.554,-5.5517,-5.5437,-5.5592,-5.5513,-5.5529,-5.5625,-5.5783,-5.5799,-5.5814,-5.5972,-5.6008,-5.6039,0,0,0,0,0,0,-5.5537,-5.5507,-5.5455,-5.5594,-5.5606,-5.5584,-5.5662,-5.5598,-5.5633,-5.5616,-5.554,-5.554,-5.5661,-5.5655,-5.5568,-5.5788,-5.5673,-5.5692,-5.5787,-5.5821,-5.5849,-5.5846,-5.5426,0,0,0,0,0,-5.559,-5.5652,-5.5623,-5.5748,-5.5757,-5.571,-5.5739,-5.5692,-5.5701,-5.5706,-5.569,-5.5702,-5.5752,-5.5787,-5.5832,-5.5984,-5.5978,-5.6058,-5.6086,-5.6108,-5.6125,-5.6203,-5.6237,-5.5873,-5.5873,-5.5872,0,0,-5.5698,-5.569,-5.5734,-5.5781,-5.5785,-5.585,-5.5715,-5.579,-5.5838,-5.5717,-5.5818,-5.5808,-5.5816,-5.5947,-5.6003,-5.5945,-5.6225,-5.6128,-5.6147,-5.6151,-5.6222,-5.6256,-5.6287,-5.5883,-5.5881,-5.588,0,0,-5.593,-5.5931,-5.6034,-5.6041,-5.6049,-5.6017,-5.6042,-5.603,-5.6018,-5.612,-5.603,-5.6086,-5.6175,-5.6184,-5.62,-5.6437,-5.6364,-5.6454,-5.6596,-5.6673,-5.6702,-5.6727,-5.6808,-5.6839,-5.6471,-5.6472,-5.6472,0,-5.6063,-5.6159,-5.6095,-5.6177,-5.6199,-5.6094,-5.6197,-5.6207,-5.6229,-5.6247,-5.6181,-5.6291,-5.6289,-5.6419,-5.6477,-5.6495,-5.6519,-5.6452,-5.6703,-5.6727,-5.675,-5.6826,-5.6858,-5.6482,-5.6481,-5.648,-5.6479,0,-5.6322,-5.6391,-5.6473,-5.6497,-5.6529,-5.6622,-5.657,-5.6611,-5.6562,-5.6537,-5.664,-5.6635,-5.6676,-5.6704,-5.6657,-5.6828,-5.6791,-5.6716,-5.6598,-5.6796,-5.6866,-5.6896,-5.6497,-5.6493,-5.649,-5.6488,0,0,-5.6655,-5.6643,-5.6674,-5.6683,-5.6685,-5.6736,-5.6824,-5.6864,-5.6899,-5.6919,-5.6988,-5.7068,-5.6998,-5.7017,-5.697,-5.7038,-5.7222,-5.6954,-5.6953,-5.7001,-5.7407,-5.7461,-5.7496,-5.7176,-5.7181,-5.7186,-5.7405,0,-5.6877,-5.7025,-5.6971,-5.7122,-5.7183,-5.7085,-5.7161,-5.717,-5.7149,-5.7198,-5.7174,-5.723,-5.7136,-5.7146,-5.7209,-5.7187,-5.7302,-5.7171,-5.7238,-5.7241,-5.7235,-5.7533,-5.759,-5.7798,-5.7433,-5.7438,-5.7441,0,-5.7156,-5.7187,-5.7345,-5.7335,-5.7358,-5.7428,-5.7459,-5.7508,-5.7516,-5.7496,-5.7518,-5.7457,-5.7541,-5.7427,-5.7541,-5.7452,-5.7477,-5.7471,-5.7477,-5.7478,-5.735,-5.7539,-5.7863,-5.7893,-5.7485,-5.7481,-5.7478,0,-5.7379,-5.746,-5.7564,-5.7576,-5.7568,-5.7618,-5.7617,-5.7619,-5.7647,-5.7676,-5.7692,-5.7732,-5.7752,-5.7783,-5.7733,-5.7655,-5.7854,-5.7736,-5.7837,-5.7839,-5.788,-5.7877,-5.8209,-5.7904,-5.7903,-5.7902,-5.7902,0,-5.763,-5.773,-5.7664,-5.7727,-5.7836,-5.7773,-5.7881,-5.787,-5.7873,-5.7931,-5.7851,-5.7908,-5.7841,-5.7892,-5.7854,-5.7953,-5.7963,-5.7948,-5.7936,-5.7953,-5.7955,-5.7965,-5.7948,-5.7911,-5.7909,-5.7907,-5.7906,0,-5.7895,-5.7856,-5.7962,-5.7947,-5.7945,-5.8025,-5.8011,-5.8069,-5.8044,-5.812,-5.8134,-5.8094,-5.8149,-5.8104,-5.8159,-5.8133,-5.8263,-5.8232,-5.826,-5.825,-5.8353,-5.8342,-5.8699,-5.8742,-5.8413,-5.8416,-5.8419,0,-5.8057,-5.8131,-5.8124,-5.8157,-5.8162,-5.8218,-5.8245,-5.8187,-5.8219,-5.8235,-5.8291,-5.834,-5.8375,-5.8468,-5.8443,-5.8484,-5.8452,-5.8575,-5.8457,-5.8472,-5.8449,-5.8444,-5.845,-5.8597,-5.8601,-5.8604,-5.8607,0,-5.8346,-5.8323,-5.8366,-5.8404,-5.844,-5.8466,-5.8486,-5.8518,-5.8458,-5.8499,-5.8555,-5.8583,-5.8638,-5.8687,-5.872,-5.8718,-5.8652,-5.8645,-5.8669,-5.8685,-5.8697,-5.8688,-5.832,-5.8635,-5.8632,-5.863,-5.8629,-5.8628,-5.8561,-5.8622,-5.8626,-5.8677,-5.8686,-5.8707,-5.876,-5.8742,-5.8787,-5.8828,-5.8791,-5.8858,-5.8864,-5.8902,-5.8908,-5.8959,-5.8908,-5.8945,-5.8954,-5.8963,-5.8976,-5.8693,-5.8965,-5.8965,-5.8964,-5.8963,-5.8962,0,-5.8843,-5.8842,-5.889,-5.892,-5.896,-5.8897,-5.8916,-5.8953,-5.9013,-5.9025,-5.9062,-5.9126,-5.9173,-5.9153,-5.9194,-5.9239,-5.921,-5.9251,-5.9245,-5.9245,-5.9021,-5.8993,-5.9274,-5.9274,-5.9274,-5.9274,-5.9274,-5.9274,-5.8994,-5.9093,-5.9071,-5.9173,-5.917,-5.9235,-5.9251,-5.9269,-5.9278,-5.9353,-5.9392,-5.9379,-5.9378,-5.9418,-5.9459,-5.9451,-5.9469,-5.9521,-5.9503,-5.9292,-5.9262,-5.9232,-5.9206,-5.9526,-5.9527,-5.9722,-5.9724,-5.9725]},{"header":{"parameterUnit":"m.s-1","parameterCategory":1,"la1":30.2991,"la2":30.254,"lo1":-89.0895,"lo2":-89.0444,"dy":0.0017,"dx":0.0017,"nx":28,"ny":28,"refTime":"2023-08-19T21:00:00:Z","depth":0,"parameterNumber":3,"parameterNumberName":"V-component_of_WINDS"},"data":[0,0,0,0,0,0,0,0,0,0,0,0,0,0,0,0,0,0,0,0,0,0,0,0,0,0,0,0,0,0,0,0,0,0,0,0,0,0,0,0,0,0,0,0,0,0,0,0,0,0,0,0,0,0,0,0,0,0,-0.0154,-0.0154,0,-0.0163,-0.0163,-0.0163,-0.0221,-0.0223,-0.0224,-0.0225,-0.0232,-0.0231,-0.023,0,0,0,0,0,0,0,0,0,0,0,0,0,-0.0185,-0.0184,-0.0154,-0.0154,-0.0154,-0.0163,-0.0163,-0.0163,-0.0221,-0.0223,-0.0224,-0.0226,-0.0233,-0.0232,-0.023,0,0,0,0,0,0,0,0,0,0,0,0,0,-0.018,-0.0184,-0.0154,-0.0184,-0.0187,-0.0163,-0.0163,-0.0163,-0.022,-0.0223,-0.0225,-0.0227,-0.0233,-0.0232,-0.023,-0.0177,0,0,-0.0225,-0.0224,0,0,0,0,0,0,0,0,-0.018,-0.0179,-0.018,-0.0182,-0.0185,-0.0193,-0.0177,-0.0168,-0.022,-0.0208,-0.0225,-0.0228,-0.0218,-0.0217,-0.0214,-0.0177,-0.0178,-0.0225,-0.0224,-0.0223,-0.0222,0,0,0,0,0,0,0,-0.0181,-0.0179,-0.0158,-0.018,-0.0183,-0.0196,-0.0198,-0.0175,-0.0201,-0.0209,-0.0213,-0.0214,-0.0219,-0.0216,-0.0215,-0.0178,-0.0225,-0.0223,-0.0222,-0.0222,-0.0096,-0.0093,0,0,0,0,0,0,-0.0177,-0.0179,-0.0157,-0.0158,-0.0188,-0.0194,-0.0196,-0.0188,-0.0201,-0.0205,-0.0212,-0.0216,-0.0218,-0.0217,-0.0215,-0.0153,-0.0223,-0.0221,-0.022,-0.0098,-0.0095,-0.0092,0,0,0,0,0,0,-0.0177,-0.0175,-0.0157,-0.0169,-0.0168,-0.0191,-0.0182,-0.0187,-0.0184,-0.0203,-0.0208,-0.0203,-0.0219,-0.0218,-0.0186,-0.0154,-0.0221,-0.0219,-0.0101,-0.0097,-0.0094,-0.0028,0,0,0,0,0,0,-0.0178,-0.0174,-0.0155,-0.0169,-0.0167,-0.0128,-0.018,-0.0186,-0.0181,-0.0187,-0.0197,-0.02,-0.0221,-0.0188,-0.0184,-0.0153,-0.0218,-0.0104,-0.0099,-0.0095,-0.0033,-0.0023,-0.0014,0,0,0,0,0,-0.0179,-0.0137,-0.0154,-0.0151,-0.0144,-0.0126,-0.0125,-0.0151,-0.0178,-0.0159,-0.0171,-0.02,-0.0158,-0.0184,-0.018,-0.0148,-0.0106,-0.01,-0.0095,-0.0037,-0.0025,-0.0014,0,0,0,0,0,0,-0.0119,-0.0139,-0.0159,-0.012,-0.0121,-0.0136,-0.0112,-0.0137,-0.013,-0.0135,-0.0166,-0.0168,-0.0131,-0.0136,-0.0165,-0.0096,-0.0137,-0.013,-0.0094,-0.0082,-0.0073,-0.0072,-0.0216,0,0,0,0,0,-0.0101,-0.0086,-0.0104,-0.0067,-0.0067,-0.0089,-0.0082,-0.0101,-0.0104,-0.0104,-0.0114,-0.0115,-0.0101,-0.0092,-0.0081,-0.0034,-0.0036,-0.001,0.0,0.0008,0.0014,0.0041,0.0053,-0.0075,-0.0075,-0.0075,0,0,-0.0064,-0.0073,-0.0062,-0.0055,-0.0059,-0.004,-0.0089,-0.0069,-0.0055,-0.0101,-0.0071,-0.0078,-0.0081,-0.004,-0.0023,-0.0044,0.0049,0.0015,0.0021,0.0023,0.0047,0.006,0.007,-0.0072,-0.0072,-0.0073,0,0,0.0012,0.0006,0.0037,0.0035,0.0031,0.0016,0.0024,0.0013,0.0006,0.0036,0.0002,0.0018,0.0041,0.0041,0.0045,0.0124,0.0098,0.0128,0.0179,0.0205,0.0216,0.0224,0.0254,0.0265,0.0134,0.0134,0.0135,0,0.0059,0.0084,0.0056,0.0079,0.0084,0.0043,0.0075,0.0075,0.0075,0.0079,0.0056,0.0085,0.0081,0.0121,0.0141,0.0144,0.0153,0.0129,0.0216,0.0225,0.0233,0.0261,0.0272,0.0138,0.0138,0.0137,0.0137,0,0.0142,0.016,0.0185,0.0187,0.0194,0.0221,0.0199,0.021,0.0191,0.0179,0.0211,0.0204,0.0214,0.0222,0.0204,0.0261,0.0249,0.0221,0.018,0.0249,0.0275,0.0285,0.0144,0.0142,0.0141,0.014,0,0,0.0255,0.0242,0.0252,0.0253,0.0246,0.026,0.0287,0.0296,0.0307,0.0309,0.0331,0.0353,0.0328,0.0332,0.0313,0.0336,0.0401,0.0306,0.0305,0.0325,0.0467,0.0488,0.0501,0.0384,0.0386,0.0388,0.0467,0,0.0329,0.0373,0.035,0.0397,0.0415,0.0378,0.0401,0.04,0.0391,0.0405,0.0394,0.041,0.0376,0.0378,0.0399,0.0389,0.043,0.0383,0.0406,0.0407,0.0408,0.0514,0.0536,0.0611,0.0477,0.0479,0.048,0,0.0421,0.0428,0.0477,0.0469,0.0476,0.0497,0.0505,0.0519,0.0518,0.051,0.0515,0.0491,0.0518,0.0478,0.0515,0.0484,0.0493,0.0489,0.0492,0.0493,0.0448,0.052,0.0635,0.0647,0.0495,0.0494,0.0493,0,0.0501,0.0522,0.0554,0.0556,0.0547,0.0564,0.0561,0.0558,0.0566,0.0573,0.0579,0.0589,0.0595,0.0605,0.0585,0.0557,0.0626,0.0583,0.0621,0.0622,0.0638,0.0637,0.0757,0.0642,0.0642,0.0642,0.0641,0,0.0587,0.0619,0.059,0.061,0.0646,0.0619,0.0655,0.0649,0.0647,0.0666,0.0635,0.0654,0.0627,0.0644,0.0629,0.0664,0.0666,0.0661,0.0657,0.0664,0.0665,0.067,0.0664,0.0645,0.0644,0.0643,0.0643,0,0.0681,0.0663,0.0696,0.0686,0.0684,0.0711,0.0702,0.0722,0.071,0.0735,0.074,0.0722,0.0741,0.0722,0.0739,0.0729,0.0776,0.0764,0.0777,0.0773,0.0813,0.081,0.094,0.0957,0.083,0.0832,0.0833,0,0.0737,0.0761,0.0754,0.0764,0.0764,0.0781,0.0789,0.0765,0.0775,0.0777,0.0797,0.0812,0.0824,0.0855,0.0845,0.0858,0.0847,0.0892,0.0848,0.0856,0.0849,0.0848,0.0851,0.09,0.0902,0.0903,0.0904,0,0.084,0.083,0.0843,0.0853,0.0864,0.0871,0.0876,0.0886,0.0862,0.0875,0.0893,0.0902,0.092,0.0937,0.0948,0.0946,0.0922,0.0918,0.0928,0.0936,0.0943,0.0941,0.0801,0.0915,0.0914,0.0913,0.0913,0.0912,0.0917,0.0938,0.0936,0.0952,0.0953,0.0959,0.0977,0.0968,0.0983,0.0996,0.0981,0.1004,0.1005,0.1017,0.1018,0.1037,0.1018,0.1032,0.1035,0.1039,0.1046,0.0939,0.1039,0.1038,0.1038,0.1038,0.1037,0,0.1019,0.1017,0.1032,0.104,0.1053,0.1029,0.1033,0.1046,0.1067,0.1069,0.1081,0.1104,0.112,0.1112,0.1127,0.1143,0.1133,0.1148,0.1147,0.1148,0.1061,0.1052,0.1157,0.1157,0.1157,0.1157,0.1157,0.1157,0.1074,0.1107,0.1098,0.1133,0.113,0.1152,0.1157,0.1163,0.1165,0.1192,0.1205,0.1199,0.1198,0.1213,0.1228,0.1225,0.1233,0.1252,0.1246,0.1165,0.1153,0.1142,0.1133,0.1254,0.1254,0.1331,0.1331,0.1332]}]]